QPF
0.10 0.09 0.09 0.10 0.08 0.06 0.06 0.05 0.03 0.05 0.03 0.02 0.01 0.01 0.01 0.02 0.01 0.01 0.02 0.01 0.01 0.01 0.01 0.01 0.01 0.01 0.01 0.00 0.00 0.00 0.00 0.01 0.01 0.01 0.01 0.01 0.01 0.01 0.02 0.02 0.02 0.02 0.01
0.07 0.07 0.05 0.07 0.08 0.07 0.08 0.04 0.03 0.03 0.03 0.03 0.02 0.02 0.02 0.01 0.01 0.01 0.03 0.03 0.01 0.01 0.01 0.01 0.01 0.01 0.01 0.00 0.00 0.01 0.01 0.01 0.02 0.02 0.02 0.02 0.01 0.01 0.01 0.02 0.01 0.01 0.01
0.06 0.07 0.06 0.05 0.04 0.05 0.06 0.05 0.03 0.04 0.04 0.03 0.03 0.02 0.02 0.01 0.01 0.01 0.03 0.05 0.03 0.01 0.01 0.00 0.01 0.02 0.01 0.01 0.01 0.02 0.03 0.02 0.01 0.01 0.01 0.02 0.02 0.01 0.01 0.01 0.01 0.01 0.01
0.04 0.06 0.06 0.05 0.04 0.04 0.05 0.05 0.03 0.03 0.03 0.02 0.02 0.02 0.03 0.03 0.02 0.01 0.04 0.05 0.06 0.05 0.03 0.01 0.01 0.02 0.02 0.01 0.02 0.02 0.02 0.01 0.01 0.01 0.01 0.01 0.01 0.01 0.02 0.02 0.02 0.02 0.02
0.03 0.05 0.06 0.07 0.05 0.05 0.05 0.04 0.04 0.05 0.05 0.04 0.03 0.03 0.01 0.02 0.03 0.01 0.02 0.03 0.05 0.05 0.06 0.04 0.02 0.02 0.02 0.02 0.02 0.02 0.02 0.02 0.02 0.02 0.02 0.02 0.01 0.01 0.01 0.01 0.01 0.02 0.02
0.04 0.05 0.05 0.05 0.05 0.06 0.07 0.08 0.09 0.07 0.06 0.05 0.04 0.06 0.02 0.01 0.02 0.01 0.01 0.03 0.03 0.02 0.05 0.06 0.04 0.02 0.01 0.02 0.03 0.02 0.02 0.02 0.02 0.02 0.02 0.03 0.03 0.02 0.02 0.02 0.02 0.02 0.02
0.06 0.07 0.07 0.07 0.05 0.05 0.05 0.05 0.07 0.08 0.07 0.06 0.07 0.08 0.06 0.04 0.04 0.02 0.01 0.03 0.02 0.03 0.05 0.06 0.05 0.04 0.02 0.02 0.02 0.03 0.03 0.03 0.03 0.03 0.03 0.02 0.03 0.03 0.03 0.02 0.02 0.01 0.01
0.06 0.07 0.08 0.07 0.06 0.08 0.07 0.08 0.09 0.11 0.09 0.07 0.07 0.12 0.13 0.12 0.09 0.03 0.02 0.01 0.01 0.02 0.03 0.03 0.05 0.06 0.04 0.04 0.02 0.02 0.03 0.02 0.03 0.03 0.03 0.02 0.02 0.01 0.01 0.01 0.01 0.01 0.01
0.07 0.07 0.06 0.06 0.07 0.05 0.09 0.10 0.09 0.11 0.12 0.10 0.07 0.10 0.14 0.18 0.14 0.06 0.02 0.02 0.02 0.03 0.04 0.04 0.04 0.03 0.02 0.03 0.05 0.03 0.02 0.02 0.03 0.03 0.03 0.02 0.01 0.01 0.01 0.01 0.01 0.01 0.01
0.08 0.05 0.04 0.05 0.06 0.05 0.08 0.06 0.09 0.11 0.12 0.11 0.10 0.08 0.09 0.13 0.15 0.11 0.07 0.04 0.04 0.03 0.03 0.03 0.05 0.06 0.05 0.04 0.06 0.03 0.02 0.01 0.02 0.03 0.03 0.03 0.03 0.02 0.01 0.01 0.02 0.02 0.01
0.06 0.06 0.06 0.06 0.06 0.06 0.08 0.07 0.12 0.11 0.11 0.10 0.10 0.09 0.11 0.10 0.09 0.10 0.13 0.09 0.07 0.03 0.02 0.03 0.06 0.08 0.07 0.05 0.04 0.03 0.02 0.02 0.02 0.03 0.02 0.03 0.03 0.03 0.03 0.03 0.03 0.02 0.02
0.07 0.09 0.10 0.10 0.09 0.09 0.11 0.09 0.11 0.11 0.12 0.12 0.09 0.09 0.10 0.09 0.08 0.10 0.10 0.09 0.07 0.04 0.03 0.03 0.03 0.03 0.04 0.06 0.07 0.05 0.04 0.03 0.02 0.02 0.02 0.02 0.02 0.03 0.03 0.04 0.04 0.04 0.04
0.08 0.08 0.10 0.10 0.09 0.10 0.12 0.13 0.13 0.14 0.13 0.12 0.09 0.08 0.09 0.09 0.07 0.07 0.09 0.09 0.09 0.05 0.03 0.03 0.04 0.06 0.07 0.10 0.13 0.10 0.06 0.04 0.03 0.03 0.02 0.02 0.01 0.02 0.02 0.02 0.04 0.04 0.06
0.07 0.07 0.10 0.11 0.11 0.11 0.10 0.14 0.10 0.11 0.12 0.10 0.07 0.10 0.09 0.07 0.06 0.08 0.10 0.12 0.13 0.09 0.07 0.06 0.07 0.06 0.05 0.07 0.10 0.08 0.06 0.06 0.04 0.03 0.02 0.02 0.02 0.02 0.02 0.02 0.03 0.04 0.04
0.07 0.08 0.10 0.11 0.13 0.14 0.14 0.16 0.12 0.11 0.13 0.10 0.08 0.10 0.10 0.07 0.07 0.08 0.09 0.11 0.13 0.13 0.11 0.11 0.08 0.08 0.08 0.08 0.09 0.06 0.06 0.06 0.05 0.03 0.02 0.02 0.02 0.02 0.02 0.02 0.02 0.02 0.02
0.08 0.09 0.11 0.11 0.11 0.12 0.15 0.15 0.14 0.13 0.14 0.12 0.12 0.13 0.12 0.08 0.08 0.08 0.08 0.09 0.11 0.13 0.11 0.10 0.09 0.08 0.07 0.07 0.07 0.05 0.05 0.05 0.04 0.03 0.02 0.01 0.01 0.01 0.01 0.01 0.01 0.01 0.01
0.08 0.07 0.08 0.10 0.10 0.12 0.14 0.16 0.14 0.12 0.11 0.11 0.11 0.12 0.10 0.10 0.11 0.11 0.11 0.11 0.10 0.12 0.12 0.10 0.09 0.09 0.09 0.07 0.06 0.05 0.05 0.04 0.03 0.04 0.04 0.03 0.03 0.02 0.01 0.01 0.01 0.02 0.02
0.07 0.08 0.08 0.07 0.07 0.11 0.14 0.14 0.11 0.11 0.10 0.09 0.09 0.09 0.09 0.09 0.11 0.12 0.12 0.12 0.11 0.12 0.12 0.11 0.09 0.08 0.09 0.09 0.07 0.07 0.06 0.06 0.05 0.06 0.07 0.05 0.04 0.03 0.02 0.02 0.02 0.03 0.03
0.07 0.08 0.07 0.06 0.05 0.06 0.10 0.12 0.10 0.11 0.11 0.11 0.12 0.11 0.09 0.09 0.10 0.12 0.11 0.09 0.08 0.08 0.10 0.10 0.10 0.10 0.09 0.08 0.09 0.09 0.09 0.10 0.09 0.07 0.07 0.05 0.03 0.03 0.03 0.03 0.03 0.03 0.04
0.04 0.05 0.05 0.05 0.05 0.05 0.06 0.09 0.10 0.10 0.11 0.12 0.14 0.16 0.15 0.13 0.11 0.10 0.09 0.09 0.10 0.11 0.11 0.11 0.11 0.11 0.10 0.09 0.10 0.10 0.10 0.09 0.08 0.07 0.06 0.04 0.03 0.03 0.03 0.03 0.03 0.04 0.04
0.03 0.04 0.04 0.05 0.06 0.06 0.06 0.08 0.10 0.10 0.12 0.13 0.15 0.16 0.16 0.15 0.13 0.12 0.10 0.12 0.12 0.13 0.13 0.12 0.11 0.11 0.10 0.09 0.09 0.10 0.11 0.11 0.10 0.08 0.06 0.05 0.04 0.03 0.03 0.04 0.04 0.05 0.06
0.05 0.05 0.05 0.05 0.05 0.03 0.05 0.06 0.06 0.07 0.09 0.09 0.09 0.09 0.10 0.09 0.09 0.10 0.09 0.10 0.09 0.11 0.12 0.13 0.13 0.12 0.11 0.11 0.10 0.10 0.10 0.09 0.09 0.08 0.07 0.07 0.05 0.04 0.03 0.03 0.04 0.05 0.06
0.03 0.03 0.04 0.04 0.03 0.04 0.04 0.04 0.05 0.05 0.08 0.09 0.08 0.09 0.08 0.07 0.07 0.07 0.08 0.08 0.07 0.08 0.10 0.11 0.12 0.11 0.10 0.09 0.08 0.07 0.08 0.07 0.06 0.05 0.05 0.06 0.06 0.06 0.06 0.06 0.07 0.06 0.06
0.02 0.02 0.02 0.02 0.03 0.03 0.02 0.02 0.03 0.03 0.05 0.06 0.06 0.07 0.08 0.08 0.08 0.08 0.08 0.09 0.09 0.09 0.09 0.08 0.08 0.07 0.07 0.07 0.07 0.07 0.07 0.06 0.05 0.04 0.03 0.03 0.03 0.04 0.04 0.04 0.06 0.06 0.06
0.02 0.02 0.02 0.01 0.01 0.01 0.01 0.01 0.01 0.01 0.02 0.02 0.03 0.04 0.05 0.06 0.08 0.10 0.11 0.11 0.11 0.10 0.09 0.08 0.07 0.06 0.06 0.05 0.05 0.05 0.06 0.06 0.05 0.04 0.03 0.03 0.04 0.03 0.03 0.03 0.03 0.04 0.04
0.02 0.02 0.01 0.01 0.01 0.01 0.02 0.01 0.01 0.01 0.02 0.02 0.02 0.02 0.03 0.05 0.08 0.09 0.11 0.13 0.13 0.11 0.10 0.09 0.09 0.08 0.07 0.06 0.06 0.06 0.06 0.06 0.06 0.05 0.04 0.04 0.05 0.04 0.04 0.04 0.03 0.03 0.03
MSLP
1017.49 1017.71 1017.85 1017.95 1018.04 1018.15 1018.27 1018.40 1018.51 1018.58 1018.60 1018.58 1018.53 1018.50 1018.53 1018.67 1018.92 1019.30 1019.76 1020.27 1020.77 1021.21 1021.57 1021.84 1022.01 1022.12 1022.21 1022.30 1022.42 1022.57 1022.74 1022.92 1023.09 1023.24 1023.37 1023.47 1023.54 1023.61 1023.68 1023.75 1023.82 1023.88 1023.93
1017.32 1017.52 1017.66 1017.76 1017.86 1017.97 1018.11 1018.26 1018.40 1018.52 1018.59 1018.62 1018.61 1018.61 1018.64 1018.73 1018.92 1019.21 1019.59 1020.02 1020.47 1020.89 1021.27 1021.59 1021.83 1022.02 1022.17 1022.30 1022.44 1022.58 1022.73 1022.89 1023.04 1023.18 1023.31 1023.43 1023.53 1023.64 1023.73 1023.81 1023.88 1023.93 1023.96
1017.14 1017.33 1017.47 1017.59 1017.71 1017.84 1018.01 1018.18 1018.37 1018.53 1018.66 1018.73 1018.77 1018.78 1018.80 1018.85 1018.96 1019.15 1019.42 1019.75 1020.13 1020.52 1020.90 1021.25 1021.55 1021.82 1022.04 1022.23 1022.40 1022.55 1022.69 1022.83 1022.96 1023.09 1023.22 1023.35 1023.48 1023.61 1023.73 1023.82 1023.90 1023.93 1023.94
1016.95 1017.16 1017.32 1017.46 1017.60 1017.77 1017.96 1018.17 1018.39 1018.59 1018.76 1018.88 1018.95 1018.98 1018.98 1018.99 1019.03 1019.11 1019.27 1019.49 1019.78 1020.11 1020.47 1020.84 1021.20 1021.52 1021.81 1022.06 1022.27 1022.44 1022.58 1022.71 1022.83 1022.95 1023.09 1023.23 1023.38 1023.53 1023.66 1023.76 1023.83 1023.86 1023.85
1016.76 1016.98 1017.17 1017.35 1017.53 1017.72 1017.94 1018.17 1018.41 1018.64 1018.84 1019.00 1019.10 1019.15 1019.15 1019.12 1019.09 1019.09 1019.14 1019.25 1019.44 1019.70 1020.01 1020.37 1020.74 1021.12 1021.46 1021.76 1022.02 1022.22 1022.38 1022.52 1022.64 1022.76 1022.89 1023.04 1023.21 1023.36 1023.51 1023.62 1023.70 1023.72 1023.70
1016.55 1016.80 1017.03 1017.26 1017.47 1017.69 1017.91 1018.15 1018.40 1018.64 1018.86 1019.04 1019.16 1019.23 1019.23 1019.19 1019.12 1019.05 1019.01 1019.02 1019.10 1019.27 1019.53 1019.85 1020.22 1020.61 1020.99 1021.34 1021.63 1021.88 1022.07 1022.22 1022.36 1022.49 1022.64 1022.79 1022.97 1023.14 1023.29 1023.41 1023.49 1023.52 1023.49
1016.33 1016.61 1016.88 1017.14 1017.38 1017.62 1017.85 1018.08 1018.31 1018.54 1018.76 1018.95 1019.10 1019.18 1019.21 1019.17 1019.09 1018.97 1018.86 1018.79 1018.78 1018.86 1019.03 1019.29 1019.63 1020.01 1020.40 1020.78 1021.11 1021.40 1021.63 1021.82 1021.98 1022.14 1022.30 1022.48 1022.66 1022.85 1023.03 1023.16 1023.26 1023.29 1023.29
1016.10 1016.40 1016.69 1016.98 1017.24 1017.48 1017.71 1017.92 1018.13 1018.34 1018.54 1018.73 1018.90 1019.02 1019.07 1019.06 1018.98 1018.86 1018.71 1018.57 1018.48 1018.47 1018.55 1018.73 1019.00 1019.34 1019.72 1020.11 1020.47 1020.79 1021.06 1021.30 1021.50 1021.70 1021.90 1022.10 1022.32 1022.53 1022.73 1022.90 1023.03 1023.10 1023.12
1015.87 1016.16 1016.46 1016.76 1017.03 1017.27 1017.47 1017.66 1017.84 1018.01 1018.20 1018.39 1018.57 1018.72 1018.82 1018.86 1018.82 1018.71 1018.55 1018.37 1018.22 1018.12 1018.11 1018.20 1018.39 1018.67 1019.01 1019.38 1019.75 1020.09 1020.41 1020.69 1020.94 1021.19 1021.43 1021.68 1021.94 1022.20 1022.45 1022.67 1022.85 1022.98 1023.06
1015.63 1015.90 1016.18 1016.47 1016.74 1016.96 1017.15 1017.30 1017.45 1017.59 1017.76 1017.94 1018.14 1018.33 1018.48 1018.57 1018.59 1018.52 1018.38 1018.20 1018.00 1017.84 1017.75 1017.74 1017.85 1018.05 1018.32 1018.65 1019.01 1019.36 1019.71 1020.03 1020.34 1020.64 1020.94 1021.25 1021.57 1021.89 1022.21 1022.50 1022.75 1022.96 1023.12
1015.38 1015.60 1015.86 1016.12 1016.37 1016.58 1016.75 1016.88 1016.99 1017.11 1017.25 1017.43 1017.64 1017.86 1018.06 1018.22 1018.30 1018.29 1018.20 1018.03 1017.83 1017.63 1017.48 1017.40 1017.41 1017.53 1017.73 1018.00 1018.32 1018.67 1019.03 1019.39 1019.74 1020.10 1020.46 1020.84 1021.23 1021.63 1022.03 1022.40 1022.75 1023.05 1023.29
1015.14 1015.29 1015.51 1015.74 1015.96 1016.15 1016.29 1016.40 1016.49 1016.58 1016.70 1016.87 1017.08 1017.33 1017.57 1017.79 1017.94 1018.00 1017.97 1017.86 1017.68 1017.48 1017.29 1017.16 1017.11 1017.15 1017.28 1017.49 1017.77 1018.10 1018.46 1018.83 1019.22 1019.64 1020.06 1020.51 1020.97 1021.45 1021.93 1022.40 1022.84 1023.23 1023.57
1014.91 1015.00 1015.16 1015.35 1015.55 1015.71 1015.83 1015.91 1015.97 1016.04 1016.13 1016.28 1016.48 1016.72 1016.99 1017.26 1017.47 1017.61 1017.66 1017.61 1017.50 1017.34 1017.17 1017.03 1016.94 1016.93 1017.01 1017.17 1017.41 1017.71 1018.06 1018.45 1018.87 1019.33 1019.81 1020.32 1020.85 1021.40 1021.96 1022.50 1023.02 1023.49 1023.90
1014.73 1014.77 1014.88 1015.03 1015.19 1015.32 1015.41 1015.47 1015.49 1015.51 1015.56 1015.66 1015.82 1016.04 1016.31 1016.59 1016.85 1017.06 1017.19 1017.24 1017.22 1017.14 1017.04 1016.94 1016.87 1016.87 1016.93 1017.07 1017.29 1017.57 1017.91 1018.31 1018.76 1019.24 1019.77 1020.33 1020.92 1021.52 1022.13 1022.72 1023.29 1023.81 1024.27
1014.65 1014.66 1014.72 1014.83 1014.94 1015.03 1015.08 1015.09 1015.06 1015.02 1015.00 1015.02 1015.12 1015.28 1015.50 1015.77 1016.05 1016.31 1016.52 1016.68 1016.78 1016.83 1016.84 1016.84 1016.86 1016.91 1017.01 1017.17 1017.40 1017.69 1018.05 1018.46 1018.92 1019.44 1020.00 1020.59 1021.21 1021.84 1022.47 1023.09 1023.66 1024.19 1024.65
1014.72 1014.71 1014.74 1014.80 1014.86 1014.90 1014.89 1014.82 1014.72 1014.59 1014.47 1014.39 1014.38 1014.44 1014.59 1014.80 1015.06 1015.35 1015.64 1015.91 1016.14 1016.34 1016.52 1016.67 1016.83 1017.00 1017.20 1017.44 1017.72 1018.06 1018.45 1018.89 1019.39 1019.93 1020.51 1021.12 1021.75 1022.38 1023.00 1023.59 1024.14 1024.63 1025.05
1014.98 1014.95 1014.96 1014.97 1014.97 1014.94 1014.85 1014.70 1014.49 1014.26 1014.01 1013.80 1013.65 1013.58 1013.60 1013.73 1013.94 1014.22 1014.56 1014.92 1015.30 1015.67 1016.04 1016.39 1016.74 1017.08 1017.43 1017.80 1018.19 1018.61 1019.07 1019.56 1020.10 1020.67 1021.27 1021.88 1022.50 1023.11 1023.68 1024.22 1024.70 1025.12 1025.47
1015.40 1015.38 1015.35 1015.32 1015.25 1015.14 1014.96 1014.71 1014.40 1014.03 1013.66 1013.29 1012.99 1012.76 1012.65 1012.66 1012.78 1013.04 1013.39 1013.83 1014.33 1014.86 1015.42 1015.99 1016.56 1017.11 1017.66 1018.20 1018.73 1019.27 1019.82 1020.38 1020.97 1021.57 1022.17 1022.78 1023.38 1023.94 1024.46 1024.92 1025.32 1025.64 1025.90
1015.93 1015.91 1015.87 1015.78 1015.65 1015.46 1015.18 1014.84 1014.41 1013.94 1013.43 1012.93 1012.47 1012.10 1011.84 1011.71 1011.74 1011.93 1012.27 1012.74 1013.34 1014.01 1014.75 1015.52 1016.30 1017.08 1017.83 1018.55 1019.25 1019.92 1020.58 1021.22 1021.86 1022.49 1023.11 1023.71 1024.27 1024.78 1025.23 1025.61 1025.91 1026.14 1026.29
1016.49 1016.48 1016.41 1016.28 1016.09 1015.82 1015.47 1015.04 1014.54 1013.97 1013.37 1012.76 1012.18 1011.68 1011.28 1011.03 1010.95 1011.06 1011.36 1011.84 1012.48 1013.25 1014.12 1015.06 1016.03 1016.99 1017.93 1018.83 1019.68 1020.48 1021.24 1021.97 1022.65 1023.30 1023.92 1024.50 1025.03 1025.49 1025.87 1026.18 1026.40 1026.54 1026.62
1016.97 1016.97 1016.88 1016.72 1016.48 1016.16 1015.77 1015.29 1014.75 1014.14 1013.49 1012.83 1012.18 1011.59 1011.10 1010.74 1010.56 1010.59 1010.82 1011.27 1011.91 1012.72 1013.67 1014.71 1015.80 1016.91 1017.99 1019.03 1020.00 1020.90 1021.74 1022.51 1023.23 1023.89 1024.50 1025.05 1025.54 1025.95 1026.28 1026.53 1026.69 1026.78 1026.81
1017.30 1017.30 1017.21 1017.02 1016.76 1016.43 1016.03 1015.55 1015.02 1014.43 1013.80 1013.14 1012.49 1011.88 1011.34 1010.92 1010.67 1010.61 1010.77 1011.15 1011.75 1012.54 1013.50 1014.58 1015.72 1016.90 1018.05 1019.16 1020.20 1021.16 1022.03 1022.82 1023.53 1024.18 1024.76 1025.27 1025.72 1026.09 1026.39 1026.60 1026.73 1026.80 1026.81
1017.45 1017.45 1017.35 1017.18 1016.92 1016.61 1016.24 1015.82 1015.35 1014.84 1014.28 1013.70 1013.11 1012.54 1012.02 1011.59 1011.29 1011.17 1011.25 1011.55 1012.07 1012.79 1013.69 1014.73 1015.86 1017.02 1018.17 1019.28 1020.32 1021.27 1022.12 1022.89 1023.56 1024.17 1024.70 1025.17 1025.57 1025.90 1026.18 1026.37 1026.51 1026.58 1026.60
1017.41 1017.43 1017.36 1017.21 1016.99 1016.73 1016.43 1016.11 1015.75 1015.36 1014.93 1014.48 1014.01 1013.53 1013.07 1012.67 1012.38 1012.22 1012.24 1012.45 1012.87 1013.48 1014.28 1015.22 1016.25 1017.33 1018.41 1019.45 1020.41 1021.29 1022.08 1022.78 1023.38 1023.91 1024.38 1024.79 1025.14 1025.45 1025.70 1025.90 1026.05 1026.15 1026.21
1017.27 1017.32 1017.29 1017.19 1017.04 1016.85 1016.65 1016.44 1016.22 1015.97 1015.71 1015.41 1015.09 1014.74 1014.39 1014.06 1013.80 1013.63 1013.60 1013.74 1014.05 1014.54 1015.20 1015.99 1016.89 1017.83 1018.77 1019.69 1020.54 1021.31 1021.99 1022.58 1023.09 1023.53 1023.92 1024.26 1024.57 1024.84 1025.08 1025.30 1025.47 1025.60 1025.71
1017.12 1017.22 1017.25 1017.21 1017.14 1017.04 1016.95 1016.85 1016.76 1016.66 1016.55 1016.42 1016.24 1016.04 1015.81 1015.58 1015.37 1015.22 1015.17 1015.24 1015.46 1015.83 1016.34 1016.98 1017.70 1018.48 1019.27 1020.03 1020.73 1021.36 1021.92 1022.39 1022.79 1023.14 1023.45 1023.73 1023.99 1024.24 1024.47 1024.69 1024.88 1025.05 1025.20
Thickness
5752 5750 5749 5747 5747 5746 5745 5746 5745 5745 5745 5746 5747 5747 5747 5745 5744 5740 5735 5733 5731 5729 5727 5725 5723 5722 5720 5719 5717 5716 5715 5714 5713 5711 5710 5708 5707 5705 5704 5703 5702 5701 5700
5753 5751 5750 5748 5748 5748 5747 5746 5746 5745 5745 5746 5746 5746 5746 5745 5743 5740 5736 5733 5731 5729 5727 5725 5724 5722 5720 5719 5717 5716 5714 5713 5712 5710 5709 5708 5706 5705 5703 5702 5701 5700 5699
5753 5752 5750 5748 5748 5748 5747 5746 5746 5746 5745 5746 5745 5745 5745 5745 5743 5742 5738 5735 5732 5730 5728 5726 5724 5723 5721 5719 5718 5716 5714 5713 5712 5710 5709 5707 5706 5705 5703 5702 5701 5700 5698
5753 5752 5750 5749 5748 5748 5747 5746 5746 5745 5745 5745 5745 5745 5745 5744 5744 5742 5740 5738 5735 5732 5729 5727 5725 5724 5722 5720 5718 5717 5715 5714 5712 5710 5709 5707 5706 5704 5703 5702 5700 5699 5698
5753 5751 5750 5748 5748 5748 5747 5747 5746 5745 5743 5743 5744 5744 5745 5744 5744 5744 5742 5741 5738 5736 5732 5729 5726 5725 5723 5721 5720 5718 5716 5714 5712 5711 5709 5707 5706 5704 5703 5701 5700 5698 5697
5752 5751 5749 5748 5748 5747 5746 5746 5745 5745 5744 5743 5744 5744 5745 5745 5745 5744 5743 5742 5740 5737 5735 5731 5728 5726 5724 5722 5720 5719 5717 5715 5713 5711 5709 5707 5705 5704 5702 5701 5699 5698 5696
5752 5751 5750 5749 5748 5747 5746 5746 5745 5743 5743 5744 5740 5738 5741 5744 5744 5744 5743 5742 5741 5739 5737 5734 5731 5728 5726 5723 5721 5720 5718 5716 5713 5711 5709 5707 5705 5703 5701 5700 5698 5696 5695
5752 5752 5749 5749 5748 5747 5746 5745 5744 5742 5742 5744 5739 5733 5729 5733 5739 5745 5743 5742 5741 5740 5738 5736 5733 5731 5728 5725 5723 5721 5718 5716 5714 5711 5709 5707 5705 5702 5700 5698 5697 5695 5693
5752 5751 5750 5749 5748 5747 5745 5744 5744 5741 5738 5741 5743 5736 5727 5724 5730 5738 5742 5742 5741 5740 5739 5738 5735 5733 5730 5727 5724 5721 5719 5716 5713 5711 5708 5706 5704 5701 5699 5697 5695 5693 5691
5753 5752 5751 5749 5748 5747 5746 5745 5745 5743 5740 5737 5740 5741 5739 5736 5727 5726 5734 5739 5740 5738 5738 5738 5736 5732 5730 5728 5725 5723 5719 5716 5713 5710 5708 5705 5702 5700 5697 5695 5692 5690 5688
5754 5752 5751 5749 5748 5746 5746 5745 5745 5743 5742 5739 5738 5739 5738 5737 5736 5727 5722 5728 5733 5736 5736 5736 5734 5730 5728 5727 5724 5722 5719 5715 5712 5709 5706 5703 5700 5698 5695 5692 5690 5687 5685
5754 5753 5751 5749 5747 5746 5745 5745 5744 5743 5742 5740 5740 5740 5737 5734 5732 5730 5725 5725 5725 5730 5734 5734 5732 5730 5728 5725 5722 5719 5715 5712 5709 5707 5704 5701 5698 5695 5692 5689 5686 5684 5682
5753 5752 5751 5749 5747 5746 5746 5745 5743 5742 5741 5739 5739 5738 5739 5738 5738 5735 5729 5725 5724 5726 5728 5728 5729 5728 5725 5723 5719 5716 5712 5709 5705 5702 5699 5696 5694 5691 5688 5685 5682 5679 5677
5755 5753 5751 5749 5747 5746 5745 5744 5743 5741 5741 5739 5739 5738 5737 5737 5738 5736 5731 5725 5719 5719 5720 5720 5722 5722 5720 5718 5714 5711 5707 5704 5701 5697 5694 5691 5688 5685 5682 5679 5676 5674 5671
5755 5753 5751 5749 5747 5746 5744 5743 5741 5740 5740 5738 5738 5737 5735 5735 5735 5735 5733 5728 5719 5711 5710 5714 5715 5716 5714 5711 5708 5705 5701 5698 5694 5691 5688 5685 5681 5678 5675 5672 5669 5666 5663
5754 5752 5750 5748 5747 5745 5744 5742 5740 5739 5738 5737 5736 5734 5732 5731 5731 5731 5729 5727 5724 5717 5709 5710 5709 5708 5707 5704 5700 5697 5694 5691 5687 5684 5681 5677 5674 5671 5667 5664 5661 5658 5655
5752 5750 5749 5747 5746 5744 5743 5740 5739 5738 5735 5734 5733 5731 5729 5728 5726 5725 5724 5722 5720 5716 5707 5705 5704 5702 5700 5696 5692 5689 5686 5682 5679 5676 5673 5670 5666 5663 5659 5655 5652 5649 5646
5750 5748 5747 5745 5743 5742 5740 5738 5736 5735 5732 5730 5728 5727 5725 5724 5721 5720 5718 5716 5714 5712 5706 5698 5696 5694 5691 5689 5685 5682 5679 5675 5671 5667 5664 5661 5657 5654 5650 5646 5643 5639 5636
5747 5746 5744 5741 5740 5739 5737 5736 5734 5731 5729 5727 5725 5722 5721 5719 5716 5714 5713 5711 5709 5707 5703 5696 5690 5687 5684 5681 5677 5674 5671 5667 5663 5659 5655 5651 5648 5644 5640 5636 5632 5630 5627
5743 5741 5739 5737 5736 5734 5733 5731 5730 5727 5724 5722 5720 5718 5716 5714 5711 5709 5707 5705 5702 5699 5696 5691 5685 5681 5677 5673 5670 5666 5661 5658 5654 5650 5645 5641 5637 5634 5630 5626 5622 5619 5616
5740 5737 5735 5732 5730 5729 5727 5726 5724 5722 5719 5716 5714 5712 5710 5709 5706 5704 5701 5699 5696 5692 5688 5683 5678 5673 5669 5666 5663 5661 5655 5650 5644 5640 5635 5630 5627 5623 5618 5614 5611 5608 5605
5734 5732 5729 5727 5725 5723 5721 5720 5718 5716 5713 5710 5708 5706 5704 5702 5699 5697 5695 5692 5690 5686 5681 5677 5672 5667 5663 5660 5657 5654 5649 5643 5636 5631 5627 5620 5616 5612 5608 5603 5600 5597 5593
5729 5726 5724 5722 5719 5716 5715 5713 5711 5709 5706 5703 5701 5699 5697 5695 5692 5690 5687 5685 5682 5680 5677 5673 5667 5662 5658 5655 5651 5646 5641 5635 5628 5623 5618 5611 5607 5603 5599 5594 5590 5586 5582
5723 5720 5718 5716 5713 5710 5708 5706 5704 5702 5699 5696 5694 5692 5689 5687 5685 5682 5680 5676 5672 5669 5668 5665 5662 5657 5653 5649 5645 5640 5634 5626 5620 5614 5610 5603 5598 5593 5589 5583 5579 5575 5570
5717 5715 5712 5710 5707 5703 5701 5700 5697 5695 5692 5689 5686 5684 5682 5679 5677 5675 5673 5668 5663 5659 5656 5655 5652 5648 5645 5641 5637 5631 5625 5618 5610 5603 5599 5595 5589 5584 5579 5573 5569 5564 5560
5713 5710 5707 5704 5701 5698 5695 5693 5691 5690 5686 5682 5679 5676 5673 5671 5669 5667 5665 5661 5656 5651 5648 5645 5641 5638 5634 5631 5627 5623 5618 5611 5604 5595 5589 5585 5580 5575 5569 5564 5559 5554 5549